Regional Weather Roundup
Issued by NWS

Home | Current Version | Previous Version | Text Only | Print | Product List | Glossary On
Versions: 1 2 3 4 5 6 7 8 9 10 11 12 13 14 15 16 17 18 19 20 21 22 23 24 25 26 27 28 29 30 31 32 33 34 35 36 37 38 39 40 41 42 43 44 45 46 47 48 49 50
139
ASUS44 KFWD 261315
RWRTX
NORTH TEXAS HOURLY WEATHER ROUNDUP
NATIONAL WEATHER SERVICE FORT WORTH TX
800 AM CDT SUN MAR 26 2017

NOTE: "FAIR" INDICATES FEW OR NO CLOUDS BELOW 12,000 FEET WITH NO
SIGNIFICANT WEATHER AND/OR OBSTRUCTIONS TO VISIBILITY.

TXZ118-119-261400-
DALLAS/FORT WORTH METROPLEX

CITY           SKY/WX    TMP DP  RH WIND       PRES   REMARKS
DFW AIRPORT    PTCLDY    54  50  86 SE8       29.86S
DALLAS LOVE    PTCLDY    57  50  77 SE10      29.88S
FTW MEACHAM    CLEAR     56  47  71 SE9       29.87R
DAL-EXECUTIVE  CLEAR     51  49  92 SE6       29.88S
FTW-ALLIANCE   PTCLDY    52  48  86 CALM      29.86S
FTW-NAS-JRB    PTCLDY    55  48  77 E8        29.87R
FTW-SPINKS     CLEAR     52  46  82 CALM      29.89R
ARLINGTON      CLEAR     51  47  86 SE6       29.88R
GRAND PRAIRIE  CLEAR     52  46  82 CALM      29.89S
ADDISON        CLEAR     55  48  76 SE9       29.89S
MESQUITE       CLEAR     48  46  93 CALM      29.91R
LANCASTER        N/A     45  44  97 CALM      29.91R FOG
$$

TXZ091>094-102>105-117-120-121-131>134-261400-
NORTH CENTRAL TEXAS

CITY           SKY/WX    TMP DP  RH WIND       PRES   REMARKS
SHRMAN/DENISON CLEAR     54  47  77 SE9       29.90R
GAINESVILLE    CLEAR     48  45  90 SE5       29.89F
BOWIE          CLEAR     52  47  83 SE7       29.85S
BRIDGEPORT     CLEAR     48  47  95 SE3       29.87S
DECATUR          N/A     53  46  77 SE8       29.86R
DENTON         CLEAR     52  48  86 SE7       29.87S
MCKINNEY       CLEAR     49  48  97 E3        29.90R
BONHAM         CLEAR     48  46  93 SE3       29.91R
GREENVILLE     CLEAR     50  46  87 CALM      29.92R
ROCKWALL       CLEAR     55  48  77 S6        29.90R
TERRELL        CLEAR     52  47  83 E3        29.91R
WAXAHACHIE     CLEAR     51  49  95 E3        29.91R
CLEBURNE       CLOUDY    55  52  88 S13       29.89R
GRANBURY       MOCLDY    56  51  81 SE8       29.87R
$$

TXZ083>090-098>101-113>116-127>130-139>142-154-155-261400-
WESTERN NORTH TEXAS

CITY           SKY/WX    TMP DP  RH WIND       PRES   REMARKS
WICHITA FALLS  CLEAR     47  43  86 SE7       29.81F
WF-KICKAPOO    CLEAR     49  45  83 E7        29.82F
VERNON         PTCLDY    46  40  78 E7        29.80S
ABILENE        CLEAR     58  49  72 S17       29.79S
ABILENE-DYESS  CLEAR     61  50  67 S24G31    29.77R
GRAHAM         CLEAR     56  48  76 SE10      29.81S
BRECKENRIDGE   CLEAR     58  48  69 SE13      29.80F
CISCO          CLEAR     52  46  82 SE10      29.83R
RANGER         CLEAR     54  50  87 S9        29.84S
MINERAL WELLS  CLEAR     52  47  83 SE13      29.83S
STEPHENVILLE   MOCLDY    53  49  87 S6        29.88R
COMANCHE       MOCLDY    60  60 100 S10G17    29.85S
BROWNWOOD      PTCLDY    55  54  94 SE7       29.84S
COLEMAN        CLEAR     55  49  82 S7        29.83S
$$

TXZ143>147-156>162-174-175-261400-
CENTRAL TEXAS

CITY           SKY/WX    TMP DP  RH WIND       PRES   REMARKS
WACO           CLOUDY    59  58  96 SE7       29.89R
WACO-MCGREGOR  CLOUDY    60  59  96 E5        29.89R
HILLSBORO      CLOUDY    58  55  87 S12       29.90R
CORSICANA      MOCLDY    56  52  86 S9        29.92R
MEXIA          CLOUDY    55  51  86 SE6       29.90R
HEARNE         MOCLDY    61  61 100 CALM      29.91R FOG
CAMERON        PTCLDY    59  58  97 E3        29.89S FOG
TEMPLE         CLOUDY    63  63 100 SE6       29.89S FOG
KILLEEN        PTCLDY    62  62  97 SE8       29.86S
KILLEEN-SKYLRK CLOUDY    64  63  96 S9        29.88R
FORT HOOD      CLOUDY    63  63 100 SE8       29.85S FOG
GATESVILLE     FOG       59  59 100 CALM      29.90S VSB 1
HAMILTON       CLOUDY    59  59 100 S10       29.87S
LAMPASAS       CLOUDY    65  63  94 S6        29.85F FOG
$$

TXZ095>097-106>112-122>126-135>138-148>153-164>167-261400-
EAST TEXAS

CITY           SKY/WX    TMP DP  RH WIND       PRES   REMARKS
PARIS          CLEAR     48  45  87 SE6       29.93S
SULPHUR SPRNGS CLEAR     49  48  97 CALM      29.94S
MOUNT PLEASANT CLEAR     49  49 100 CALM      29.95S
GILMER         CLEAR     51  49  94 CALM      29.94R
MINEOLA        CLEAR     48  48 100 E3        29.92S
TYLER          CLEAR     55  52  89 SE6       29.92R
LONGVIEW       CLEAR     52  52 100 E3        29.93R
MARSHALL       CLEAR     47  46  94 CALM      29.97R
ATHENS         CLEAR     50  50 100 CALM      29.91R
PALESTINE      CLEAR     55  51  87 SE3       29.93R
JACKSONVILLE   PTCLDY    56  50  79 SE5       29.94S
HENDERSON      CLEAR    N/A N/A N/A CALM      29.95R
CENTER         SUNNY     52  51  95 CALM      29.96R
NACOGDOCHES    CLEAR     46  43  87 CALM      29.93R
LUFKIN         CLOUDY    54  53  97 CALM      29.94R FOG
$$

SUPPLEMENTAL OBSERVATIONS (CENTRAL)

CITY           SKY/WX    TMP DP  RH WIND       PRES   REMARKS
CADDO GRASSLND   N/A     50  46  87 S5          N/A
PAT MAYSE LAKE   N/A     46  45  93 NE1         N/A
LAKE LIMESTONE   N/A     57  54  88 SE3         N/A
MCGREGOR         N/A    N/A N/A N/A S9          N/A
TEMPLE           N/A     59  57  94 NE3         N/A
$$

SUPPLEMENTAL OBSERVATIONS (WEST)

CITY           SKY/WX    TMP DP  RH WIND       PRES   REMARKS
MILLERS CREEK    N/A     54  45  71 S8G16       N/A
POSSUM KINGDOM   N/A     57  48  72 SE9         N/A
LBJ GRASSLAND    N/A     55  46  71 E7          N/A
GRANBURY         N/A     55  48  76 SE9         N/A
COMANCHE         N/A     61  55  82 S10         N/A
HAMBY            N/A     55  45  67 S14         N/A
IVIE RESERVOIR   N/A     55  48  76 NE7         N/A
COLORADO BEND    N/A     63  57  82 S9          N/A
$$

SUPPLEMENTAL OBSERVATIONS (EAST)

CITY           SKY/WX    TMP DP  RH WIND       PRES   REMARKS
CLARKSVILLE      N/A     52  46  82 SE1         N/A
TEXARKANA        N/A     46  45  93 CALM        N/A
LINDEN           N/A     48  46  93 CALM        N/A
CADDO LAKE       N/A    N/A N/A N/A CALM        N/A
GILMER           N/A     52  50  93 CALM        N/A
HENDERSON        N/A     50  48  93 CALM        N/A
LUFKIN           N/A     52  50  93 MISG        N/A
N SABINE NF      N/A     46  45  93 MISG        N/A
S SABINE NF      N/A     52  50  93 CALM        N/A
$$

SUPPLEMENTAL OBSERVATIONS ARE A COLLECTION OF AUTOMATED INSTRUMENTS
THAT ARE MAINTAINED BY A VARIETY OF FEDERAL AND STATE AGENCIES.
CERTAIN ELEMENTS...SUCH AS HUMIDITY VALUES AND SUSTAINED WIND
SPEEDS...MAY BE APPROXIMATED.





USA.gov is the U.S. government's official web portal to all federal, state and local government web resources and services.